Notices

What's New in latest Release from April 7th, 2021:

- Updated Glossary, including Speed of Maximum Gust, and Total Hourly Precipitation

- Updated national and regional climate services offices contacts and prices information

- Addition of station inventory lists for 1981-2010, 1971-2000, and 1961-1990 Normals.

If you haven't already, please take our survey and provide feedback about our website: https://eccc.sondage-survey.ca/f/LanguageSelection.aspx?s=442ca660-fcf1-47c0-95a9-59707d6fd709

Hourly Data Report for April 05, 2020

CLYDE RIVER A
NUNAVUT
Current Station Operator: NAVCAN

70°29'09.000" N
68°31'01.000" W
26.50 m
2400804
71090
YCY

Download Data

Hourly Data (April 2020)
Hourly Data Report for April 5, 2020
TIME
LST
Temp Definition
°C
Dew Point Definition
°C
Rel Hum Definition
%
Precip. Amount Definition
mm

Wind Dir Definition
10's deg

Wind Spd Definition
km/h
Visibility Definition
km
Stn Press Definition
kPa
Hmdx Definition


Wind Chill Definition


Weather Definition


00:00 -15.6 -17.6 85 0.0 30 43 4.8 103.24   -29 Fog
01:00 -15.2 -17.1 85 0.0 30 46 4.8 103.15   -28 Fog
02:00 -15.4 -18.0 81 0.0 30 37 14.5 103.15   -28 LegendNANA
03:00 -15.0 -17.5 82 0.0 31 34 16.1 103.16   -27 LegendNANA
04:00 -15.1 -18.0 79 0.0 31 41 6.4 103.10   -28 Haze
05:00 -15.5 -18.2 80 0.0 31 39 9.7 103.12   -28 Haze
06:00 -14.7 -17.6 79 0.0 31 45 8.1 103.09   -28 Fog
07:00 -14.3 -18.1 73 0.0 31 41 16.1 103.07   -27 LegendNANA
08:00 -13.8 -17.3 75 0.0 31 43 16.1 103.05   -26 LegendNANA
09:00 -13.5 -17.1 75 0.0 31 35 16.1 102.99   -25 LegendNANA
10:00 -12.4 -15.9 76 0.0 31 39 16.1 102.93   -24 LegendNANA
11:00 -11.5 -15.9 70 0.0 31 41 16.1 102.88   -23 LegendNANA
12:00 -11.7 -15.8 72 0.0 31 35 16.1 102.84   -22 LegendNANA
13:00 -11.2 -15.7 70 0.0 31 34 16.1 102.82   -22 LegendNANA
14:00 -11.0 -16.2 66 0.0 32 28 16.1 102.75   -21 LegendNANA
15:00 -11.5 -16.4 68 0.0 33 35 16.1 102.74   -22 LegendNANA
16:00 -11.8 -16.1 71 0.0 31 37 16.1 102.72   -23 LegendNANA
17:00 -11.9 -16.7 68 0.0 31 34 16.1 102.70   -23 LegendNANA
18:00 -12.5 -18.4 62 0.0 31 30 16.1 102.65   -23 LegendNANA
19:00 -12.8 -19.1 60 0.0 30 32 16.1 102.57   -23 LegendNANA
20:00 -12.7 -19.6 57 0.0 30 22 16.1 102.50   -22 LegendNANA
21:00 -13.5 -18.2 68 0.0 31 37 16.1 102.47   -25 LegendNANA
22:00 -12.8 -17.6 68 0.0 31 32 16.1 102.41   -23 LegendNANA
23:00 -12.4 -16.6 71 0.0 32 39 16.1 102.32   -24 LegendNANA

Notes on Data Quality.

Legend

  • E = Estimated
  • M = Missing
  • NA = Not Available*
  • [empty] = Indicates an unobserved value
Date modified: